Location: *
(35.8942°N, 23.3025°E)
Time: 18:16:29
(UTC+00:00)

Gurwin Techsat 1B - Pass Details

Date: 06 April 2023
Orbit: 811 x 813 km, 98.9° (Epoch: 03 June)

Event Time Altitude Azimuth Distance (km) Brightness Sun altitude
Rises 01:47:47 0° 6° (N) 3,344 12.3 -27.2°
Reaches altitude 10° 01:50:11 10° 1° (N) 2,408 11.4 -26.8°
Enters shadow 01:54:31 45° 316° (NW) 1,092 9.1 -26.1°
